| time (UTC) | temp F | wind direction | speed MPH | gust MPH | rain 1hr in | rain 24hr in | rain mn in | humidity % | barometer mb |
| 20260509181609 | 68 | 19 | 4.0 | 12.0 | 0.00 | 0.00 | 0.00 | 50 | 1022.9 |
| 20260509180034 | 66 | 9 | 5.0 | 10.0 | 0.00 | 0.00 | 0.00 | 51 | 1023.0 |
| 20260509174652 | 65 | 5 | 4.0 | 9.0 | 0.00 | 0.00 | 0.00 | 53 | 1023.0 |
| 20260509173031 | 65 | 10 | 5.0 | 11.0 | 0.00 | 0.00 | 0.00 | 53 | 1023.1 |
| 20260509170050 | 65 | 29 | 5.0 | 9.0 | 0.00 | 0.00 | 0.00 | 53 | 1023.3 |
| 20260509164533 | 66 | 21 | 4.0 | 8.0 | 0.00 | 0.00 | 0.00 | 54 | 1023.5 |
| 20260509163033 | 64 | 14 | 5.0 | 10.0 | 0.00 | 0.00 | 0.00 | 57 | 1023.6 |
| 20260509161533 | 62 | 20 | 4.0 | 8.0 | 0.00 | 0.00 | 0.00 | 60 | 1023.7 |
| 20260509160030 | 59 | 346 | 1.0 | 6.0 | 0.00 | 0.00 | 0.00 | 62 | 1023.7 |
| 20260509154611 | 59 | 18 | 2.0 | 5.0 | 0.00 | 0.00 | 0.00 | 61 | 1023.6 |
| 20260509153033 | 60 | 2 | 2.0 | 4.0 | 0.00 | 0.00 | 0.00 | 62 | 1023.6 |
| 20260509150030 | 58 | 3 | 0.0 | 1.0 | 0.00 | 0.00 | 0.00 | 67 | 1023.8 |
| 20260509144533 | 56 | 14 | 1.0 | 3.0 | 0.00 | 0.00 | 0.00 | 72 | 1023.8 |
| 20260509143046 | 53 | 13 | 0.0 | 3.0 | 0.00 | 0.00 | 0.00 | 78 | 1023.8 |
| 20260509141533 | 50 | 250 | 0.0 | 1.0 | 0.00 | 0.00 | 0.00 | 83 | 1023.7 |
| 20260509134535 | 42 | 242 | 0.0 | 2.0 | 0.00 | 0.00 | 0.00 | 86 | 1023.8 |
| 20260509133034 | 41 | 215 | 0.0 | 3.0 | 0.00 | 0.00 | 0.00 | 86 | 1023.6 |
| 20260509131535 | 40 | 229 | 2.0 | 4.0 | 0.00 | 0.00 | 0.00 | 86 | 1023.4 |
| 20260509130030 | 40 | 251 | 2.0 | 4.0 | 0.00 | 0.00 | 0.00 | 85 | 1023.3 |
| 20260509121531 | 41 | 180 | 0.0 | 3.0 | 0.00 | 0.00 | 0.00 | 83 | 1023.3 |
| 20260509120035 | 43 | 260 | 1.0 | 3.0 | 0.00 | 0.00 | 0.00 | 81 | 1023.3 |
| 20260509113032 | 44 | 209 | 3.0 | 6.0 | 0.00 | 0.00 | 0.00 | 81 | 1023.2 |
| 20260509111531 | 43 | 204 | 4.0 | 8.0 | 0.00 | 0.00 | 0.00 | 81 | 1023.2 |
| 20260509110110 | 43 | 204 | 4.0 | 7.0 | 0.00 | 0.00 | 0.00 | 81 | 1023.3 |
| 20260509104643 | 43 | 209 | 4.0 | 7.0 | 0.00 | 0.00 | 0.00 | 81 | 1023.2 |
| 20260509103110 | 42 | 198 | 3.0 | 7.0 | 0.00 | 0.00 | 0.00 | 80 | 1023.3 |
| 20260509100033 | 43 | 210 | 4.0 | 5.0 | 0.00 | 0.00 | 0.00 | 77 | 1023.3 |
| 20260509094530 | 45 | 231 | 3.0 | 6.0 | 0.00 | 0.00 | 0.00 | 76 | 1023.4 |
| 20260509093029 | 46 | 224 | 4.0 | 6.0 | 0.00 | 0.00 | 0.00 | 74 | 1023.4 |
| 20260509091530 | 47 | 198 | 4.0 | 8.0 | 0.00 | 0.00 | 0.00 | 72 | 1023.5 |
| 20260509090030 | 48 | 188 | 4.0 | 8.0 | 0.00 | 0.00 | 0.00 | 72 | 1023.6 |
| 20260509084532 | 48 | 181 | 6.0 | 9.0 | 0.00 | 0.00 | 0.00 | 72 | 1023.8 |
| 20260509081530 | 48 | 165 | 4.0 | 7.0 | 0.00 | 0.00 | 0.00 | 70 | 1024.0 |
| 20260509080110 | 50 | 206 | 4.0 | 6.0 | 0.00 | 0.00 | 0.00 | 68 | 1024.1 |
| 20260509073032 | 51 | 168 | 4.0 | 7.0 | 0.00 | 0.00 | 0.00 | 66 | 1024.1 |
| 20260509071535 | 53 | 134 | 1.0 | 7.0 | 0.00 | 0.00 | 0.00 | 64 | 1023.8 |
| 20260509070029 | 54 | 203 | 2.0 | 7.0 | 0.00 | 0.00 | 0.00 | 63 | 1023.7 |
| 20260509064531 | 55 | 263 | 8.0 | 18.0 | 0.00 | 0.00 | 0.00 | 63 | 1023.4 |
| 20260509063030 | 54 | 265 | 12.0 | 25.0 | 0.00 | 0.00 | 0.00 | 63 | 1023.1 |
| 20260509061533 | 54 | 266 | 10.0 | 20.0 | 0.00 | 0.00 | 0.00 | 64 | 1023.4 |
| 20260509054529 | 53 | 274 | 7.0 | 13.0 | 0.00 | 0.00 | 0.00 | 64 | 1023.8 |
| 20260509053142 | 53 | 274 | 2.0 | 10.0 | 0.00 | 0.00 | 0.00 | 63 | 1024.0 |
| 20260509051535 | 55 | 310 | 2.0 | 9.0 | 0.00 | 0.00 | 0.00 | 60 | 1023.8 |
| 20260509044536 | 56 | 334 | 2.0 | 9.0 | 0.00 | 0.00 | 0.00 | 59 | 1023.6 |
| 20260509043036 | 56 | 298 | 3.0 | 11.0 | 0.00 | 0.00 | 0.00 | 58 | 1023.4 |
| 20260509041536 | 57 | 282 | 6.0 | 18.0 | 0.00 | 0.00 | 0.00 | 56 | 1023.0 |
| 20260509040034 | 58 | 281 | 11.0 | 20.0 | 0.00 | 0.00 | 0.00 | 54 | 1022.6 |
| 20260509034607 | 58 | 279 | 11.0 | 24.0 | 0.00 | 0.00 | 0.00 | 53 | 1022.3 |
| 20260509033032 | 59 | 276 | 13.0 | 29.0 | 0.00 | 0.00 | 0.00 | 51 | 1021.8 |
| 20260509030032 | 60 | 290 | 11.0 | 22.0 | 0.00 | 0.00 | 0.00 | 48 | 1021.4 |
| 20260509024531 | 61 | 307 | 11.0 | 21.0 | 0.00 | 0.00 | 0.00 | 47 | 1021.2 |
| 20260509023145 | 62 | 313 | 11.0 | 21.0 | 0.00 | 0.00 | 0.00 | 45 | 1021.2 |
| 20260509021534 | 63 | 311 | 9.0 | 23.0 | 0.00 | 0.00 | 0.00 | 43 | 1021.1 |
| 20260509020032 | 64 | 313 | 10.0 | 20.0 | 0.00 | 0.00 | 0.00 | 41 | 1020.9 |
| 20260509014539 | 65 | 313 | 10.0 | 24.0 | 0.00 | 0.00 | 0.00 | 40 | 1020.9 |
| 20260509013119 | 66 | 296 | 8.0 | 18.0 | 0.00 | 0.00 | 0.00 | 38 | 1020.8 |
| 20260509011534 | 67 | 289 | 13.0 | 24.0 | 0.00 | 0.00 | 0.00 | 37 | 1020.5 |
| 20260509010034 | 68 | 286 | 15.0 | 28.0 | 0.00 | 0.00 | 0.00 | 37 | 1020.1 |
| 20260509004535 | 68 | 290 | 12.0 | 26.0 | 0.00 | 0.00 | 0.00 | 36 | 1020.2 |
| 20260509003110 | 69 | 287 | 14.0 | 26.0 | 0.00 | 0.00 | 0.00 | 36 | 1019.9 |
| 20260509001531 | 69 | 299 | 9.0 | 24.0 | 0.00 | 0.00 | 0.00 | 37 | 1020.2 |
| 20260508234534 | 69 | 346 | 9.0 | 18.0 | 0.00 | 0.00 | 0.00 | 38 | 1020.3 |
| 20260508233033 | 69 | 348 | 8.0 | 16.0 | 0.00 | 0.00 | 0.00 | 38 | 1020.3 |
| 20260508230030 | 69 | 355 | 9.0 | 19.0 | 0.00 | 0.00 | 0.00 | 36 | 1020.3 |
| 20260508224533 | 71 | 349 | 10.0 | 16.0 | 0.00 | 0.00 | 0.00 | 35 | 1020.2 |
| 20260508223034 | 70 | 360 | 7.0 | 13.0 | 0.00 | 0.00 | 0.00 | 36 | 1020.2 |
| 20260508221609 | 69 | 28 | 7.0 | 14.0 | 0.00 | 0.00 | 0.00 | 36 | 1020.3 |
| 20260508214607 | 69 | 3 | 8.0 | 14.0 | 0.00 | 0.00 | 0.00 | 36 | 1020.5 |
| 20260508213034 | 69 | 12 | 8.0 | 15.0 | 0.00 | 0.00 | 0.00 | 36 | 1020.5 |
| 20260508210030 | 68 | 33 | 4.0 | 11.0 | 0.00 | 0.00 | 0.00 | 37 | 1020.5 |
| 20260508204535 | 68 | 57 | 6.0 | 13.0 | 0.00 | 0.00 | 0.00 | 37 | 1020.6 |
| 20260508203031 | 68 | 45 | 6.0 | 12.0 | 0.00 | 0.00 | 0.00 | 40 | 1020.7 |
| 20260508200030 | 67 | 61 | 6.0 | 12.0 | 0.00 | 0.00 | 0.00 | 42 | 1020.8 |
| 20260508193028 | 63 | 65 | 7.0 | 14.0 | 0.00 | 0.00 | 0.00 | 48 | 1020.8 |
| 20260508191529 | 63 | 67 | 8.0 | 14.0 | 0.00 | 0.00 | 0.00 | 49 | 1020.7 |
| 20260508190030 | 64 | 53 | 7.0 | 12.0 | 0.00 | 0.00 | 0.00 | 50 | 1020.7 |
| 20260508184534 | 61 | 53 | 5.0 | 13.0 | 0.00 | 0.00 | 0.00 | 56 | 1020.6 |
| 20260508183030 | 59 | 38 | 6.0 | 10.0 | 0.00 | 0.00 | 0.00 | 57 | 1020.5 |